This demonstration page uses our WeatherBlox Daily Observations layout. Learn more.

Hourly Observations for May 21, 2016

Temp ( °F °C ) Dew Point ( °F °C ) Humidity (%) Winds ( mph kmh ) Pressure ( in mb ) Visibility ( mi km ) Precip ( " mm )
12:15 am 00:15 Cloudy 57 14 53 11.8 87 87 SE 14 22 30.03 1017 10 16.0934 0 0
12:35 am 00:35 Cloudy 57 13.7 53 11.9 89 89 SE 10 17 30.03 1017 10 16.0934 0 0
12:55 am 00:55 Cloudy 57 13.7 54 12 90 90 SE 12 19 30.03 1017 10 16.0934 0 0
1:15 am 01:15 Cloudy 56 13.4 53 11.7 90 90 SE 12 19 30.03 1017 10 16.0934 0 0
1:35 am 01:35 Cloudy 55 13 53 11.5 91 91 SE 10 17 30.06 1018 10 16.0934 0 0
1:55 am 01:55 Mostly Cloudy 55 12.7 53 11.5 92 92 SE 10 17 30.06 1018 10 16.0934 0 0
2:15 am 02:15 Partly Cloudy 54 12.3 52 11.1 92 92 SE 9 15 30.06 1018 10 16.0934 0 0
2:35 am 02:35 Partly Cloudy 54 12 52 11 94 94 SE 9 15 30.06 1018 10 16.0934 0 0
2:55 am 02:55 Mostly Cloudy 54 12 52 11 94 94 SE 8 13 30.06 1018 10 16.0934 0 0
3:15 am 03:15 Cloudy 54 12 52 11.1 94 94 ESE 9 15 30.06 1018 10 16.0934 0 0
3:35 am 03:35 Cloudy 54 12.2 52 11.3 94 94 SE 10 17 30.06 1018 10 16.0934 0 0
3:55 am 03:55 Cloudy 54 12.3 53 11.5 95 95 SE 9 15 30.06 1018 10 16.0934 0 0
4:15 am 04:15 Cloudy 55 12.5 53 11.5 94 94 SE 12 19 30.06 1018 10 16.0934 0 0
4:35 am 04:35 Cloudy 55 12.6 53 11.6 94 94 SE 10 17 30.06 1018 10 16.0934 0 0
4:55 am 04:55 Cloudy 55 12.8 53 11.7 93 93 SE 12 19 30.06 1018 10 16.0934 0 0
5:15 am 05:15 Cloudy 55 12.9 53 11.7 92 92 SE 10 17 30.06 1018 10 16.0934 0 0
5:35 am 05:35 Cloudy 55 13 53 11.8 92 92 SE 10 17 30.06 1018 10 16.0934 0 0
5:55 am 05:55 Cloudy 55 13 53 11.8 92 92 ESE 9 15 30.06 1018 10 16.0934 0 0
6:15 am 06:15 Cloudy 55 12.7 53 11.6 93 93 SE 9 15 30.09 1019 10 16.0934 0 0
6:35 am 06:35 Cloudy 55 12.9 53 11.7 92 92 SE 10 17 30.09 1019 10 16.0934 0 0
6:55 am 06:55 Cloudy 55 13 53 11.8 92 92 ESE 14 22 30.09 1019 10 16.0934 0 0
7:15 am 07:15 Cloudy 55 13 53 11.8 92 92 ESE 13 20 30.09 1019 10 16.0934 0 0
7:35 am 07:35 Cloudy 56 13.1 54 12 93 93 SE 10 17 30.09 1019 10 16.0934 0 0
7:55 am 07:55 Cloudy 56 13.2 54 12 93 93 SE 12 19 30.09 1019 10 16.0934 0 0
8:15 am 08:15 Cloudy 56 13.2 54 12 93 93 SE 12 19 30.09 1019 10 16.0934 0 0
8:35 am 08:35 Cloudy 56 13.5 54 12 91 91 SE 13 20 30.06 1018 10 16.0934 0 0
8:55 am 08:55 Cloudy 56 13.6 54 12.1 91 91 SE 18 30 30.06 1018 10 16.0934 0 0
9:15 am 09:15 Cloudy 56 13.6 54 12.1 91 91 SE 16 26 30.06 1018 10 16.0934 0 0
9:35 am 09:35 Cloudy 57 13.7 54 12.2 91 91 SE 15 24 30.06 1018 10 16.0934 0 0
9:55 am 09:55 Cloudy 57 14 54 12.3 90 90 SE 16 26 30.06 1018 10 16.0934 0 0
10:15 am 10:15 Cloudy 57 14.1 55 12.5 90 90 SE 16 26 30.06 1018 7 11.26538 0 0
10:35 am 10:35 Cloudy with Mist and Fog 57 14.1 55 12.5 90 90 ESE 17 28 30.06 1018 5 8.0467 0 0
10:55 am 10:55 Cloudy with Mist and Fog 57 14 55 12.7 92 92 ESE 16 26 30.06 1018 3 4.82802 0 0
11:15 am 11:15 Cloudy with Mist and Fog 57 14.1 55 12.6 91 91 SE 21 33 30.06 1018 5 8.0467 0 0
11:35 am 11:35 Cloudy with Mist and Fog 57 14.1 55 12.5 90 90 ESE 17 28 30.06 1018 5 8.0467 0 0
11:55 am 11:55 Cloudy with Light Rain 57 14 55 12.5 91 91 ESE 17 28 30.06 1018 4 6.43736 0 0
12:15 pm 12:15 Cloudy 57 14 55 12.5 91 91 ESE 20 31 30.06 1018 7 11.26538 0 0
12:35 pm 12:35 Cloudy 58 14.3 55 12.5 89 89 ESE 20 31 30.06 1018 10 16.0934 0 0
12:55 pm 12:55 Cloudy 58 14.5 54 12.2 86 86 SE 17 28 30.06 1018 10 16.0934 0 0
1:15 pm 13:15 Cloudy 58 14.7 54 12 84 84 SE 18 30 30.06 1018 10 16.0934 0 0
1:35 pm 13:35 Cloudy 59 15 54 12 82 82 SE 22 35 30.06 1018 10 16.0934 0 0
1:55 pm 13:55 Cloudy 60 15.5 53 11.9 79 79 SE 23 37 30.06 1018 10 16.0934 0 0
2:15 pm 14:15 Cloudy 60 15.6 53 11.8 78 78 SE 23 37 30.06 1018 10 16.0934 0 0
2:35 pm 14:35 Cloudy 60 15.7 53 11.7 77 77 SE 23 37 30.03 1017 10 16.0934 0 0
2:55 pm 14:55 Cloudy 60 15.8 54 12 78 78 SE 18 30 30.03 1017 10 16.0934 0 0
3:15 pm 15:15 Cloudy 60 15.8 54 12 78 78 SE 16 26 30.03 1017 10 16.0934 0 0
3:35 pm 15:35 Cloudy 60 15.8 54 12 78 78 SE 21 33 30.03 1017 10 16.0934 0 0
3:55 pm 15:55 Cloudy 61 16 54 12 77 77 SE 23 37 30.03 1017 10 16.0934 0 0
4:15 pm 16:15 Cloudy 61 16 54 12.3 79 79 SE 21 33 30.03 1017 10 16.0934 0 0
4:35 pm 16:35 Cloudy 61 16 55 12.5 80 80 SE 16 26 30.03 1017 10 16.0934 0 0
4:55 pm 16:55 Cloudy 61 16.2 54 12.4 78 78 SE 16 26 30.03 1017 10 16.0934 0 0
5:15 pm 17:15 Cloudy 61 16.2 54 12.4 78 78 SE 22 35 30 1016 10 16.0934 0 0
5:35 pm 17:35 Cloudy 62 16.5 55 12.5 77 77 SE 16 26 29.97 1015 10 16.0934 0 0
5:55 pm 17:55 Cloudy 62 16.5 55 12.5 77 77 SE 18 30 29.97 1015 10 16.0934 0 0
6:15 pm 18:15 Cloudy 62 16.6 54 12.3 76 76 SE 20 31 29.97 1015 10 16.0934 0 0
6:35 pm 18:35 Cloudy 62 16.8 54 12.1 74 74 SE 23 37 29.94 1014 10 16.0934 0 0
6:55 pm 18:55 Cloudy 62 16.6 53 11.9 74 74 SE 17 28 29.94 1014 10 16.0934 0 0
7:15 pm 19:15 Cloudy 62 16.7 53 11.9 73 73 SE 17 28 29.94 1014 10 16.0934 0 0
7:35 pm 19:35 Cloudy 62 16.6 54 12 74 74 ESE 18 30 29.94 1014 10 16.0934 0 0
7:55 pm 19:55 Cloudy 62 16.5 54 12 75 75 ESE 22 35 29.94 1014 10 16.0934 0 0
8:15 pm 20:15 Cloudy 62 16.5 54 12.1 75 75 SE 21 33 29.94 1014 10 16.0934 0 0
8:35 pm 20:35 Cloudy 62 16.5 54 12.2 76 76 SE 22 35 29.94 1014 10 16.0934 0 0
8:55 pm 20:55 Cloudy 62 16.4 54 12.2 76 76 SE 21 33 29.94 1014 10 16.0934 0 0
9:15 pm 21:15 Cloudy 61 16.3 54 12.1 76 76 SE 21 33 29.94 1014 10 16.0934 0 0
9:35 pm 21:35 Cloudy 61 16.2 54 12.2 77 77 ESE 18 30 29.94 1014 10 16.0934 0 0
9:55 pm 21:55 Cloudy 61 16.2 54 12.3 78 78 SE 17 28 29.94 1014 10 16.0934 0 0
10:15 pm 22:15 Cloudy 61 16.3 55 12.5 78 78 SE 20 31 29.97 1015 10 16.0934 0 0
10:35 pm 22:35 Cloudy 61 16.2 55 12.5 79 79 SE 17 28 30 1016 10 16.0934 0 0
10:55 pm 22:55 Cloudy 61 16.2 55 12.5 79 79 SE 17 28 29.94 1014 10 16.0934 0 0
11:15 pm 23:15 Cloudy 61 16.2 55 12.5 79 79 SE 23 37 29.94 1014 10 16.0934 0 0
11:35 pm 23:35 Cloudy 61 16.3 55 12.5 78 78 SE 18 30 29.94 1014 10 16.0934 0 0
11:55 pm 23:55 Cloudy 62 16.5 55 12.5 77 77 SE 22 35 29.94 1014 10 16.0934 0 0

Powered by AerisWeather